Regional Weather Roundup
Issued by NWS Albany, NY

Home | Current Version | Previous Version | Text Only | Print | Product List | Glossary On
Versions: 1 2 3 4 5 6 7 8 9 10 11 12 13 14 15 16 17 18 19 20 21 22 23 24 25 26 27 28
000
ASUS41 KALY 270210
RWRALY

NEW YORK STATE HOURLY WEATHER ROUNDUP
NATIONAL WEATHER SERVICE ALBANY NY
1000 PM EDT TUE JUL 26 2016

NOTE: "FAIR" INDICATES FEW OR NO CLOUDS BELOW 12,000 FEET WITH NO
SIGNIFICANT WEATHER AND/OR NO OBSTRUCTIONS TO VISIBILITY.

NYZ032-033-038>043-046>054-057>066-NYZ062>081-082-084-270300-
EAST


CITY           SKY/WX    TMP DP  RH WIND       PRES   REMARKS
ALBANY         PTCLDY    76  60  57 W12       29.93R
GLENS FALLS    CLEAR     67  63  87 CALM      29.91R
POUGHKEEPSIE   PTCLDY    73  64  73 CALM      29.92R
MONTGOMERY     PTCLDY    73  64  73 NW5       29.93R
WHITE PLAINS   PTCLDY    73  64  73 W3        29.93R
ISLIP          PTCLDY    79  65  62 NW3       29.90R
NEW YORK CITY  MOCLDY    85  61  44 NW9       29.90R
CENTRAL PARK   PTCLDY    83  60  45 VRB5      29.94R
$$

NYZ005>009-017-018-044>046-055-056-270300-
CENTRAL


CITY           SKY/WX    TMP DP  RH WIND       PRES   REMARKS
FULTON         CLEAR     68  61  78 CALM      29.95S
SYRACUSE       CLEAR     70  62  76 CALM      29.95R
ROME           CLEAR     67  62  84 CALM      29.97R
ELMIRA         CLOUDY    71  61  70 CALM      29.99R
BINGHAMTON       N/A     70  59  68 N6        30.01R
MONTICELLO     MOCLDY    70  61  73 CALM      30.01R
$$

NYZ026>034-041>043-087-270300-
NORTH


CITY           SKY/WX    TMP DP  RH WIND       PRES   REMARKS
WATERTOWN      CLEAR     70  62  76 S6        29.93R
FORT DRUM      NOT AVBL
MASSENA        PTCLDY    70  65  84 SW6       29.91R
SARANAC LAKE   PTCLDY    65  59  81 SW3       29.97R
PLATTSBURGH    CLEAR     72  62  71 W5        29.89R
$$

NYZ001>004-010>016-019>021-085-270300-
WEST


CITY           SKY/WX    TMP DP  RH WIND       PRES   REMARKS
NIAGARA FALLS  PTCLDY    74  62  66 SW12      29.97S
BUFFALO        PTCLDY    74  64  71 SW8       29.99R
DUNKIRK        CLEAR     67  63  87 S5        30.01R
JAMESTOWN      CLEAR     70  55  60 NW5       30.05S
WELLSVILLE     PTCLDY    67  57  70 NW8       30.07R
ROCHESTER      PTCLDY    71  62  73 SW5       29.98R
PENN YAN       CLEAR     70  60  70 SW3       30.00R
$$

             KEY
       WCI = WIND CHILL INDEX
       VSB = VISIBILITY
       HX  = HEAT INDEX
$$




USA.gov is the U.S. government's official web portal to all federal, state and local government web resources and services.